Regional Weather Roundup
Issued by NWS

Home | Current Version | Previous Version | Text Only | Print | Product List | Glossary On
Versions: 1 2 3 4 5 6 7 8 9 10 11 12 13 14 15 16 17 18 19 20 21 22 23 24 25 26 27 28
000
ASUS45 KBOI 260210
RWRID
WEATHER ROUNDUP FOR IDAHO
NATIONAL WEATHER SERVICE BOISE ID
800 PM MDT SAT OCT 25 2014

NOTE: "FAIR" INDICATES FEW OR NO CLOUDS BELOW 12000 FEET
WITH NO SIGNIFICANT WEATHER AND/OR OBSTRUCTIONS TO VISIBILITY

IDZ012-014-260300-
SOUTHWEST IDAHO


CITY           SKY/WX    TMP DP  RH WIND       PRES   REMARKS
BOISE          CLOUDY    65  35  33 S8        29.77S
CALDWELL       CLOUDY    64  37  36 SW14      29.79R
MOUNTAIN HOME  MOCLDY    66  35  32 W18G25    29.80R
$$

IDZ016-017-260300-
SOUTHCENTRAL IDAHO


CITY           SKY/WX    TMP DP  RH WIND       PRES   REMARKS
BURLEY         MOCLDY    62  37  39 SW7       29.77F
JEROME         CLOUDY    65  36  34 NW5       29.79S
TWIN FALLS     CLOUDY    67  32  27 E6        29.78F
$$

IDZ019>023-260300-
SOUTHEAST IDAHO


CITY           SKY/WX    TMP DP  RH WIND       PRES   REMARKS
IDAHO FALLS    MOCLDY    64  34  32 S10       29.84F
POCATELLO      PTCLDY    67  34  29 S15       29.82F
REXBURG        MOCLDY    62  33  33 S9        29.85F
$$

IDZ006-010-011-018-031-032-260300-
CENTRAL IDAHO MOUNTAINS


CITY           SKY/WX    TMP DP  RH WIND       PRES   REMARKS
MCCALL         MOCLDY    53  35  50 S10G25    29.80R
HAILEY         MOCLDY    54  36  50 CALM      29.85F
STANLEY          N/A     53  31  42 W14G22    29.92R
SALMON         MOCLDY    43  39  87 SW6       29.76F
CHALLIS        CLOUDY    56  33  42 W6        29.78S
$$

IDZ002-004-006-007-026-260300-
NORTHERN IDAHO


CITY           SKY/WX    TMP DP  RH WIND       PRES   REMARKS
LEWISTON       CLOUDY    72  35  25 S14       29.51S
LOWELL           N/A     49  48  97 CALM      29.65S
COEUR D`ALENE  CLOUDY    55  46  71 SW12      29.53S
MULLAN PASS    CLOUDY    48  32  53 S12G24    29.68F
$$



USA.gov is the U.S. government's official web portal to all federal, state and local government web resources and services.